Location: Avon
(37.7514°N, 90.2235°W)
Time: 22:46:20
(UTC+00:00)

Explorer 7 - Pass Details

Date: 20 November 2024
Orbit: 456 x 598 km, 50.3° (Epoch: 03 December)

Event Time Altitude Azimuth Distance (km) Brightness Sun altitude
Exits shadow 11:23:47 16° 338° (NNW) 1,464 8.7 -16.4°
Maximum altitude 11:26:06 26° 24° (NNE) 1,126 8.5 -15.9°
Drops below altitude 10° 11:29:41 10° 81° (E) 1,869 10.6 -15.2°
Sets 11:32:18 0° 94° (E) 2,788 12.2 -14.7°
